Location: Bacharowice
(49.9333°N, 19.5833°E)
Time: 11:42:49
(UTC+00:00)

X-37B - Visible Passes

Search period start: 30 July 2021 00:00
Search period end: 09 August 2021 00:00
Orbit: 383 x 392 km, 45.0° (Epoch: 01 July)

Date Brightness Start Highest point End Pass type
(mag) Time Alt. Az. Time Alt. Az. Time Alt. Az.
03 Aug 3.0 01:39:35 11° SSE 01:40:28 12° SSE 01:41:50 10° SE visible
04 Aug 2.2 02:15:59 12° SW 02:18:16 23° SSE 02:20:53 10° ESE visible
05 Aug 2.5 01:20:06 18° SSE 01:20:06 18° SSE 01:22:19 10° ESE visible
06 Aug 1.7 01:56:29 19° SW 01:57:59 29° S 02:00:48 10° ESE visible
07 Aug 2.4 01:00:38 21° SE 01:00:38 21° SE 01:02:24 10° ESE visible
07 Aug 1.5 02:33:03 10° WSW 02:35:59 33° S 02:38:55 10° ESE visible
08 Aug 1.4 01:37:06 29° SSW 01:37:44 32° S 01:40:39 10° ESE visible
